TimeEDT,TemperatureF,Dew PointF,Humidity,Sea Level PressureIn,VisibilityMPH,Wind Direction,Wind SpeedMPH,Gust SpeedMPH,PrecipitationIn,Events,Conditions,WindDirDegrees,DateUTC
12:53 AM,61.0,52.0,72,30.14,10.0,SSW,11.5,-,N/A,,Clear,210,2012-10-05 04:53:00
1:53 AM,62.1,52.0,70,30.14,10.0,SW,9.2,-,N/A,,Clear,220,2012-10-05 05:53:00
2:53 AM,62.1,52.0,70,30.14,10.0,SW,10.4,-,N/A,,Clear,220,2012-10-05 06:53:00
3:53 AM,61.0,52.0,72,30.13,10.0,SSW,9.2,-,N/A,,Clear,210,2012-10-05 07:53:00
4:53 AM,60.1,52.0,75,30.12,10.0,SSW,5.8,-,N/A,,Clear,200,2012-10-05 08:53:00
5:53 AM,59.0,52.0,78,30.12,10.0,South,6.9,-,N/A,,Clear,190,2012-10-05 09:53:00
6:53 AM,57.9,52.0,81,30.13,10.0,South,5.8,-,N/A,,Clear,190,2012-10-05 10:53:00
7:53 AM,55.9,52.0,87,30.14,7.0,South,5.8,-,N/A,,Clear,170,2012-10-05 11:53:00
8:53 AM,60.1,53.1,78,30.14,10.0,South,6.9,-,N/A,,Clear,190,2012-10-05 12:53:00
9:53 AM,64.0,54.0,70,30.14,10.0,SSW,6.9,-,N/A,,Clear,200,2012-10-05 13:53:00
10:53 AM,68.0,55.0,63,30.12,10.0,SW,9.2,-,N/A,,Clear,220,2012-10-05 14:53:00
11:53 AM,71.6,55.4,57,30.09,10.0,SW,9.2,-,N/A,,Clear,220,2012-10-05 15:53:00
12:53 PM,73.0,55.0,53,30.09,10.0,WSW,12.7,-,N/A,,Mostly Cloudy,250,2012-10-05 16:53:00
1:53 PM,73.0,55.0,53,30.05,10.0,SW,10.4,17.3,N/A,,Mostly Cloudy,230,2012-10-05 17:53:00
2:53 PM,73.9,53.1,48,30.03,10.0,WSW,11.5,-,N/A,,Mostly Cloudy,250,2012-10-05 18:53:00
3:53 PM,73.9,53.1,48,30.02,10.0,WSW,13.8,17.3,N/A,,Overcast,240,2012-10-05 19:53:00
4:53 PM,73.9,53.1,48,30.00,10.0,SW,6.9,-,N/A,,Mostly Cloudy,220,2012-10-05 20:53:00
5:53 PM,73.0,54.0,51,29.98,10.0,SW,5.8,-,N/A,,Mostly Cloudy,220,2012-10-05 21:53:00
6:53 PM,71.1,54.0,55,29.98,10.0,SSW,4.6,-,N/A,,Scattered Clouds,210,2012-10-05 22:53:00
7:53 PM,69.1,54.0,58,29.97,10.0,SSW,5.8,-,N/A,,Mostly Cloudy,200,2012-10-05 23:53:00
8:53 PM,66.9,53.1,61,29.95,10.0,South,5.8,-,N/A,,Mostly Cloudy,180,2012-10-06 00:53:00
9:53 PM,66.0,53.1,63,29.94,10.0,South,6.9,-,N/A,,Clear,190,2012-10-06 01:53:00
10:53 PM,64.9,53.1,65,29.92,10.0,South,5.8,-,N/A,,Partly Cloudy,190,2012-10-06 02:53:00
11:53 PM,64.9,53.1,65,29.89,10.0,South,9.2,-,N/A,,Overcast,190,2012-10-06 03:53:00